Time,TemperatureF,DewpointF,PressureIn,WindDirection,WindDirectionDegrees,WindSpeedMPH,WindSpeedGustMPH,Humidity,HourlyPrecipIn,Conditions,Clouds,dailyrainin,SoftwareType,DateUTC
2013-08-27 00:18:00,68.0,66.0,30.07,ESE,117,0.0,1.0,94,-99.99,,,-99.99,,2013-08-27 04:18:00,
2013-08-27 00:47:00,68.0,66.0,30.07,South,183,0.0,1.0,94,-99.99,,,-99.99,,2013-08-27 04:47:00,
2013-08-27 00:54:00,68.0,66.0,30.07,South,183,0.0,1.0,94,-99.99,,,-99.99,,2013-08-27 04:54:00,
2013-08-27 01:13:00,69.0,67.0,30.06,ESE,120,0.0,1.0,94,-99.99,,,-99.99,,2013-08-27 05:13:00,
2013-08-27 01:23:00,69.0,67.0,30.06,ESE,120,0.0,0.0,94,-99.99,,,-99.99,,2013-08-27 05:23:00,
2013-08-27 01:43:00,69.0,67.0,30.06,ESE,120,0.0,1.0,94,-99.99,,,-99.99,,2013-08-27 05:43:00,
2013-08-27 01:52:00,69.0,67.0,30.06,ESE,120,0.0,1.0,94,-99.99,,,-99.99,,2013-08-27 05:52:00,
2013-08-27 02:12:00,68.0,66.0,30.05,ESE,120,0.0,0.0,94,-99.99,,,-99.99,,2013-08-27 06:12:00,
2013-08-27 02:22:00,68.0,66.0,30.03,SE,125,0.0,0.0,94,-99.99,,,-99.99,,2013-08-27 06:22:00,
2013-08-27 02:42:00,68.0,66.0,30.03,ESE,121,0.0,3.0,94,-99.99,,,-99.99,,2013-08-27 06:42:00,
2013-08-27 02:52:00,67.0,65.0,30.02,ESE,122,0.0,3.0,94,-99.99,,,-99.99,,2013-08-27 06:52:00,
2013-08-27 03:12:00,67.0,65.0,30.01,West,267,0.0,0.0,94,-99.99,,,-99.99,,2013-08-27 07:12:00,
2013-08-27 03:22:00,67.0,65.0,30.01,West,267,0.0,0.0,94,-99.99,,,-99.99,,2013-08-27 07:22:00,
2013-08-27 03:52:00,67.0,66.0,29.99,NNE,15,1.0,2.0,95,-99.99,,,-99.99,,2013-08-27 07:52:00,
2013-08-27 04:12:00,67.0,66.0,30.00,NW,316,1.0,4.0,95,-99.99,,,-99.99,,2013-08-27 08:12:00,
2013-08-27 04:22:00,67.0,66.0,29.99,SW,215,0.0,1.0,95,-99.99,,,-99.99,,2013-08-27 08:22:00,
2013-08-27 04:42:00,68.0,67.0,29.98,SW,218,0.0,2.0,95,-99.99,,,-99.99,,2013-08-27 08:42:00,
2013-08-27 04:52:00,68.0,67.0,29.98,SE,131,0.0,1.0,95,-99.99,,,-99.99,,2013-08-27 08:52:00,
2013-08-27 05:11:00,68.0,67.0,29.97,West,281,0.0,1.0,95,-99.99,,,-99.99,,2013-08-27 09:11:00,
2013-08-27 05:22:00,68.0,67.0,29.98,SE,145,0.0,1.0,95,-99.99,,,-99.99,,2013-08-27 09:22:00,
2013-08-27 05:43:00,68.0,67.0,29.98,ESE,123,0.0,2.0,95,-99.99,,,-99.99,,2013-08-27 09:43:00,
2013-08-27 05:54:00,68.0,67.0,29.97,West,264,0.0,1.0,95,-99.99,,,-99.99,,2013-08-27 09:54:00,
2013-08-27 06:14:00,69.0,68.0,29.97,West,259,0.0,1.0,95,-99.99,,,-99.99,,2013-08-27 10:14:00,
2013-08-27 06:25:00,69.0,68.0,29.97,ESE,123,0.0,1.0,95,-99.99,,,-99.99,,2013-08-27 10:25:00,
2013-08-27 06:43:00,68.0,67.0,29.97,East,96,0.0,2.0,95,-99.99,,,-99.99,,2013-08-27 10:43:00,
2013-08-27 06:53:00,68.0,67.0,29.97,East,96,0.0,2.0,95,-99.99,,,-99.99,,2013-08-27 10:53:00,
2013-08-27 07:12:00,68.0,67.0,29.98,SW,229,0.0,1.0,95,-99.99,,,-99.99,,2013-08-27 11:12:00,
2013-08-27 07:22:00,68.0,67.0,29.98,SW,229,0.0,1.0,95,-99.99,,,-99.99,,2013-08-27 11:22:00,
2013-08-27 07:42:00,68.0,67.0,29.98,SE,131,0.0,1.0,95,-99.99,,,-99.99,,2013-08-27 11:42:00,
2013-08-27 07:52:00,68.0,67.0,29.98,ENE,67,0.0,2.0,95,-99.99,,,-99.99,,2013-08-27 11:52:00,
2013-08-27 08:02:00,68.0,67.0,29.98,ENE,67,0.0,2.0,95,-99.99,,,-99.99,,2013-08-27 12:02:00,
2013-08-27 08:12:00,68.0,67.0,29.98,ENE,67,0.0,2.0,95,-99.99,,,-99.99,,2013-08-27 12:12:00,
2013-08-27 08:22:00,67.0,66.0,29.99,ENE,66,0.0,1.0,95,-99.99,,,-99.99,,2013-08-27 12:22:00,
2013-08-27 08:42:00,67.0,66.0,29.99,ENE,70,0.0,1.0,95,-99.99,,,-99.99,,2013-08-27 12:42:00,
2013-08-27 08:52:00,67.0,66.0,29.98,ENE,67,0.0,2.0,95,-99.99,,,-99.99,,2013-08-27 12:52:00,
2013-08-27 09:12:00,67.0,66.0,29.98,ENE,61,0.0,2.0,95,-99.99,,,-99.99,,2013-08-27 13:12:00,
2013-08-27 09:22:00,67.0,66.0,29.98,ENE,61,0.0,2.0,95,-99.99,,,-99.99,,2013-08-27 13:22:00,
2013-08-27 09:42:00,68.0,67.0,30.00,ENE,61,1.0,2.0,95,-99.99,,,-99.99,,2013-08-27 13:42:00,
2013-08-27 09:52:00,68.0,67.0,30.00,East,85,1.0,2.0,95,-99.99,,,-99.99,,2013-08-27 13:52:00,
2013-08-27 10:11:00,68.0,67.0,30.00,ENE,61,1.0,2.0,95,-99.99,,,-99.99,,2013-08-27 14:11:00,
2013-08-27 10:22:00,68.0,67.0,30.01,ENE,58,1.0,2.0,95,-99.99,,,-99.99,,2013-08-27 14:22:00,
2013-08-27 10:42:00,69.0,68.0,30.01,NE,41,0.0,2.0,95,-99.99,,,-99.99,,2013-08-27 14:42:00,
2013-08-27 10:53:00,69.0,68.0,30.01,NE,46,1.0,3.0,95,-99.99,,,-99.99,,2013-08-27 14:53:00,
2013-08-27 11:11:00,70.0,68.0,30.01,NE,53,1.0,4.0,95,-99.99,,,-99.99,,2013-08-27 15:11:00,
2013-08-27 11:22:00,70.0,68.0,30.01,NE,53,1.0,4.0,95,-99.99,,,-99.99,,2013-08-27 15:22:00,
2013-08-27 11:45:00,72.0,70.0,30.01,East,91,1.0,3.0,92,-99.99,,,-99.99,,2013-08-27 15:45:00,
2013-08-27 11:58:00,74.0,71.0,30.01,East,79,1.0,3.0,89,-99.99,,,-99.99,,2013-08-27 15:58:00,
2013-08-27 12:17:00,75.0,71.0,30.01,NE,50,1.0,4.0,86,-99.99,,,-99.99,,2013-08-27 16:17:00,
2013-08-27 12:28:00,75.0,70.0,30.01,East,79,1.0,4.0,85,-99.99,,,-99.99,,2013-08-27 16:28:00,
2013-08-27 12:46:00,77.0,71.0,30.01,East,80,1.0,3.0,82,-99.99,,,-99.99,,2013-08-27 16:46:00,
2013-08-27 12:55:00,77.0,72.0,30.01,NE,55,1.0,3.0,84,-99.99,,,-99.99,,2013-08-27 16:55:00,
2013-08-27 13:13:00,76.0,71.0,30.01,ESE,102,1.0,4.0,85,-99.99,,,-99.99,,2013-08-27 17:13:00,
2013-08-27 13:23:00,77.0,71.0,30.01,NE,45,1.0,4.0,83,-99.99,,,-99.99,,2013-08-27 17:23:00,
2013-08-27 13:52:00,77.0,72.0,30.02,NE,53,1.0,5.0,84,-99.99,,,-99.99,,2013-08-27 17:52:00,
2013-08-27 14:12:00,78.0,73.0,30.01,NE,48,1.0,3.0,84,-99.99,,,-99.99,,2013-08-27 18:12:00,
2013-08-27 14:22:00,79.0,72.0,30.01,SSE,166,1.0,4.0,80,-99.99,,,-99.99,,2013-08-27 18:22:00,
2013-08-27 14:42:00,80.0,73.0,30.01,NW,318,1.0,4.0,80,-99.99,,,-99.99,,2013-08-27 18:42:00,
2013-08-27 14:53:00,80.0,72.0,30.01,West,281,2.0,5.0,78,-99.99,,,-99.99,,2013-08-27 18:53:00,
2013-08-27 15:12:00,81.0,73.0,30.00,NE,52,2.0,5.0,76,-99.99,,,-99.99,,2013-08-27 19:12:00,
2013-08-27 15:22:00,81.0,73.0,29.99,NNW,335,1.0,5.0,77,-99.99,,,-99.99,,2013-08-27 19:22:00,
2013-08-27 15:42:00,81.0,73.0,30.00,NE,44,1.0,2.0,77,-99.99,,,-99.99,,2013-08-27 19:42:00,
2013-08-27 15:52:00,81.0,73.0,30.00,West,276,1.0,2.0,77,-99.99,,,-99.99,,2013-08-27 19:52:00,
2013-08-27 16:12:00,82.0,74.0,29.99,West,278,1.0,2.0,76,-99.99,,,-99.99,,2013-08-27 20:12:00,